Preview of NWS' New Version of Forecast
This preview is not operational and should not be used for support decisions.

Regional Weather Roundup (RWR)

Issued by National Weather Service (NWS)

                            
000
ASUS45 KBOI 221710
RWRID 

IDAHO REGIONAL WEATHER ROUNDUP
NATIONAL WEATHER SERVICE BOISE ID
1100 AM MDT SUN SEP 22 2019

NOTE: "FAIR" INDICATES FEW OR NO CLOUDS BELOW 12000 FEET
WITH NO SIGNIFICANT WEATHER AND/OR OBSTRUCTIONS TO VISIBILITY

IDZ012-014-221800-
SOUTHWEST IDAHO

  
CITY           SKY/WX    TMP DP  RH WIND       PRES   REMARKS
BOISE          SUNNY     65  40  39 E15       30.04S                  
CALDWELL       SUNNY     62  43  49 E8        30.03F                  
MOUNTAIN HOME  SUNNY     61  40  46 E22       30.05F                  
$$

IDZ016-017-221800-
SOUTHCENTRAL IDAHO

  
CITY           SKY/WX    TMP DP  RH WIND       PRES   REMARKS
BURLEY         SUNNY     63  38  39 SE8       30.11S                  
JEROME         SUNNY     63  39  41 E6        30.11F                  
TWIN FALLS     SUNNY     63  41  44 NE10      30.11S                  
$$

IDZ019>023-221800-
SOUTHEAST IDAHO

  
CITY           SKY/WX    TMP DP  RH WIND       PRES   REMARKS
IDAHO FALLS    SUNNY     56  41  57 SW7       30.17S                  
POCATELLO      SUNNY     63  34  33 VRB7      30.16S                  
REXBURG        SUNNY     55  39  54 SW10      30.17S                  
$$

IDZ006-010-011-018-031-032-221800-
CENTRAL IDAHO MOUNTAINS

  
CITY           SKY/WX    TMP DP  RH WIND       PRES   REMARKS
MCCALL         SUNNY     50  40  68 CALM      30.08F                  
HAILEY         SUNNY     54  37  54 NW6       30.17S                  
STANLEY          N/A     44  35  70 CALM      30.16F                  
SALMON         SUNNY     56  43  61 VRB3      30.09F                  
CHALLIS        SUNNY     54  36  50 CALM      30.12F                  
$$

IDZ002-004-006-007-026-221800-
NORTHERN IDAHO

  
CITY           SKY/WX    TMP DP  RH WIND       PRES   REMARKS
LEWISTON       MOSUNNY   62  49  62 NW3       29.92S                  
LOWELL           N/A     58  48  69 CALM      29.99F                  
COEUR D'ALENE  SUNNY     61  47  59 VRB3      29.95F                  
MULLAN PASS    SUNNY     51  41  68 VRB5      30.04S                  
$$